OK2ARM-12 Weather Reports


Display with metric or nautical units.
time (UTC)temp
F
wind
direction
speed
MPH
gust
MPH
rain 1hr
in
rain 24hr
in
rain mn
in
humidity
%
barometer
mb
20240221155622 46 0.0 0.0 0.00 0.00 0.00 64 1017.6
20240221154623 46 0.0 0.0 0.00 0.00 0.00 64 1017.8
20240221153622 46 0.0 0.0 0.00 0.00 0.00 61 1017.9
20240221152623 47 0.0 0.0 0.00 0.00 0.00 61 1017.8
20240221151624 46 0.0 0.0 0.00 0.00 0.00 62 1018.1
20240221150624 47 0.0 0.0 0.00 0.00 0.00 59 1018.2
20240221145623 47 0.0 0.0 0.00 0.00 0.00 61 1018.4
20240221144623 47 0.0 0.0 0.00 0.00 0.00 61 1018.3
20240221143622 46 0.0 0.0 0.00 0.00 0.00 59 1018.5
20240221142624 47 0.0 0.0 0.00 0.00 0.00 61 1018.4
20240221141622 45 0.0 0.0 0.00 0.00 0.00 64 1018.6
20240221135358 45 0.0 0.0 0.00 0.00 0.00 64 1018.9
20240221134358 45 0.0 0.0 0.00 0.00 0.00 64 1019.0
20240221133400 45 0.0 0.0 0.00 0.00 0.00 64 1019.1
20240221132359 46 0.0 0.0 0.00 0.00 0.00 62 1019.4
20240221131358 46 0.0 0.0 0.00 0.00 0.00 62 1019.4
20240221130359 45 0.0 0.0 0.00 0.00 0.00 65 1019.6
20240221125358 44 0.0 0.0 0.00 0.00 0.00 70 1019.8
20240221124358 43 0.0 0.0 0.00 0.00 0.00 68 1019.9
20240221123359 43 0.0 0.0 0.00 0.00 0.00 68 1020.0
20240221121135 43 0.0 0.0 0.00 0.00 0.00 67 1020.2
20240221120135 43 0.0 0.0 0.00 0.00 0.00 69 1020.3
20240221113911 42 0.0 0.0 0.00 0.00 0.00 72 1020.5
20240221112911 42 0.0 0.0 0.00 0.00 0.00 75 1020.7
20240221111912 42 0.0 0.0 0.00 0.00 0.00 75 1020.9
20240221110911 42 0.0 0.0 0.00 0.00 0.00 77 1021.0
20240221105911 43 0.0 0.0 0.00 0.00 0.00 76 1021.3
20240221104910 42 0.0 0.0 0.00 0.00 0.00 75 1021.6
20240221103911 42 0.0 0.0 0.00 0.00 0.00 75 1021.8
20240221102911 42 0.0 0.0 0.00 0.00 0.00 75 1021.9
20240221101911 42 0.0 0.0 0.00 0.00 0.00 75 1021.9
20240221100911 42 0.0 0.0 0.00 0.00 0.00 74 1021.8
20240221095911 41 0.0 0.0 0.00 0.00 0.00 74 1021.8
20240221094912 41 0.0 0.0 0.00 0.00 0.00 76 1021.8
20240221091419 40 0.0 0.0 0.00 0.00 0.00 79 1021.9
20240221090419 41 0.0 0.0 0.00 0.00 0.00 77 1021.9
20240221084156 39 0.0 0.0 0.00 0.00 0.00 80 1021.9
20240221083156 39 0.0 0.0 0.00 0.00 0.00 80 1021.9
20240221082156 39 0.0 0.0 0.00 0.00 0.00 81 1021.9
20240221081156 38 0.0 0.0 0.00 0.00 0.00 81 1022.0
20240221074932 38 0.0 0.0 0.00 0.00 0.00 82 1022.1
20240221073934 38 0.0 0.0 0.00 0.00 0.00 83 1022.2
20240221072933 38 0.0 0.0 0.00 0.00 0.00 82 1022.4
20240221070710 37 0.0 0.0 0.00 0.00 0.00 83 1022.4
20240221064445 37 0.0 0.0 0.00 0.00 0.00 84 1022.5
20240221062221 37 0.0 0.0 0.00 0.00 0.00 85 1022.4
20240221061222 37 0.0 0.0 0.00 0.00 0.00 85 1022.4
20240221060221 37 0.0 0.0 0.00 0.00 0.00 85 1022.3
20240221055221 37 0.0 0.0 0.00 0.00 0.00 85 1022.5
20240221054221 37 0.0 0.0 0.00 0.00 0.00 86 1022.6
20240221053222 37 0.0 0.0 0.00 0.00 0.00 86 1022.6
20240221052221 37 0.0 0.0 0.00 0.00 0.00 86 1022.5
20240221051221 37 0.0 0.0 0.00 0.00 0.00 86 1022.5
20240221050221 37 0.0 0.0 0.00 0.00 0.00 86 1022.7
20240221045221 37 0.0 0.0 0.00 0.00 0.00 86 1022.6
20240221044221 37 0.0 0.0 0.00 0.00 0.00 86 1022.7
20240221043222 37 0.0 0.0 0.00 0.00 0.00 86 1022.7
20240221040957 37 0.0 0.0 0.00 0.00 0.00 85 1023.0
20240221035957 37 0.0 0.0 0.00 0.00 0.00 85 1023.1
20240221034958 37 0.0 0.0 0.00 0.00 0.00 85 1023.2
20240221033957 37 0.0 0.0 0.00 0.00 0.00 85 1023.2
20240221032957 37 0.0 0.0 0.00 0.00 0.00 85 1023.2
20240221031958 37 0.0 0.0 0.00 0.00 0.00 85 1023.2
20240221030957 38 0.0 0.0 0.00 0.00 0.00 85 1023.2
20240221025957 38 0.0 0.0 0.00 0.00 0.00 85 1023.2
20240221024958 38 0.0 0.0 0.00 0.00 0.00 85 1023.3
20240221022733 38 0.0 0.0 0.00 0.00 0.00 84 1023.7
20240221021735 38 0.0 0.0 0.00 0.00 0.00 84 1023.7
20240221020733 38 0.0 0.0 0.00 0.00 0.00 84 1023.7
20240221015734 38 0.0 0.0 0.00 0.00 0.00 84 1023.8
20240221013509 38 0.0 0.0 0.00 0.00 0.00 84 1024.0
20240221012510 38 0.0 0.0 0.00 0.00 0.00 85 1024.1
20240221011509 38 0.0 0.0 0.00 0.00 0.00 85 1024.2
20240221010508 38 0.0 0.0 0.00 0.00 0.00 85 1024.2
20240221005509 38 0.0 0.0 0.00 0.00 0.00 86 1024.4
20240221004509 38 0.0 0.0 0.00 0.00 0.00 86 1024.5
20240221003510 38 0.0 0.0 0.00 0.00 0.00 86 1024.6
20240221002509 38 0.0 0.0 0.00 0.00 0.00 87 1024.6
20240221001509 38 0.0 0.0 0.00 0.00 0.00 87 1024.6
20240221000509 38 0.0 0.0 0.00 0.00 0.00 87 1024.6
20240220235509 38 0.0 0.0 0.00 0.00 0.00 88 1024.7
20240220234510 37 0.0 0.0 0.00 0.00 0.00 88 1024.8
20240220233509 37 0.0 0.0 0.00 0.00 0.00 89 1024.9
20240220232509 37 0.0 0.0 0.00 0.00 0.00 90 1025.0
20240220231508 37 0.0 0.0 0.00 0.00 0.00 89 1025.0
20240220230509 37 0.0 0.0 0.00 0.00 0.00 89 1024.9
20240220225508 37 0.0 0.0 0.00 0.00 0.00 88 1025.0
20240220224508 37 0.0 0.0 0.00 0.00 0.00 88 1025.1
20240220223509 37 0.0 0.0 0.00 0.00 0.00 86 1025.0
20240220222510 37 0.0 0.0 0.00 0.00 0.00 86 1024.9
20240220221509 37 0.0 0.0 0.00 0.00 0.00 85 1025.0
20240220220508 38 0.0 0.0 0.00 0.00 0.00 84 1025.0
20240220213020 38 0.0 0.0 0.00 0.00 0.00 80 1025.0
20240220212020 38 0.0 0.0 0.00 0.00 0.00 80 1025.1
20240220204533 39 0.0 0.0 0.00 0.00 0.00 83 1025.3
20240220203533 39 0.0 0.0 0.00 0.00 0.00 84 1025.3
20240220202533 38 0.0 0.0 0.00 0.00 0.00 85 1025.2
20240220200310 39 0.0 0.0 0.00 0.00 0.00 84 1025.2
20240220195309 39 0.0 0.0 0.00 0.00 0.00 82 1025.2
20240220194308 39 0.0 0.0 0.00 0.00 0.00 81 1025.2
20240220193308 39 0.0 0.0 0.00 0.00 0.00 81 1025.2
20240220192309 39 0.0 0.0 0.00 0.00 0.00 81 1025.1
20240220191309 39 0.0 0.0 0.00 0.00 0.00 80 1025.1
20240220190308 39 0.0 0.0 0.00 0.00 0.00 80 1025.1
20240220184044 39 0.0 0.0 0.00 0.00 0.00 79 1025.1
20240220183045 39 0.0 0.0 0.00 0.00 0.00 79 1025.1
20240220182045 39 0.0 0.0 0.00 0.00 0.00 79 1025.0
20240220181045 39 0.0 0.0 0.00 0.00 0.00 80 1025.0
20240220180045 39 0.0 0.0 0.00 0.00 0.00 80 1025.0
20240220175045 39 0.0 0.0 0.00 0.00 0.00 80 1025.0
20240220174045 39 0.0 0.0 0.00 0.00 0.00 80 1025.0
20240220173045 40 0.0 0.0 0.00 0.00 0.00 80 1024.9
20240220172045 40 0.0 0.0 0.00 0.00 0.00 81 1024.8
20240220171044 40 0.0 0.0 0.00 0.00 0.00 80 1024.8
20240220170045 40 0.0 0.0 0.00 0.00 0.00 82 1024.7
20240220163821 40 0.0 0.0 0.00 0.00 0.00 80 1024.1
20240220162820 40 0.0 0.0 0.00 0.00 0.00 80 1024.1
20240220161820 40 0.0 0.0 0.00 0.00 0.00 79 1023.9
20240220160822 40 0.0 0.0 0.00 0.00 0.00 78 1023.9
20240220155820 41 0.0 0.0 0.00 0.00 0.00 77 1023.8